Weather History for Crestview, FL

Change the Weather History Date:

Friday, November 2, 2012

  Actual Average Record
Temperature  
Mean Temperature 61 °F -  
Max Temperature 81 °F - - ()
Min Temperature 42 °F - - ()
Degree Days  
Heating Degree Days 4    
Growing Degree Days 11 (Base 50)    
Moisture  
Dew Point 54 °F    
Average Humidity 77    
Maximum Humidity 95    
Minimum Humidity 48    
Precipitation  
Precipitation 0.00 in - - ()
Sea Level Pressure  
Sea Level Pressure 30.04 in    
Wind  
Wind Speed 3 mph (SW)    
Max Wind Speed 12 mph    
Max Gust Speed -    
Visibility 10 miles    
Events      
T = Trace of Precipitation, MM = Missing Value Source: NWS Daily Summary

Daily Weather History Graph

Daily Weather History Graph

Search for Another Location

Airport:

Trip Planner

Search our weather history database for the weather conditions in past years. The results will help you decide how hot, cold, wet, or windy it might be!

Date:

Astronomy

Nov. 02, 2012 Rise Set
Actual Time 7:02 AM CDT 5:56 PM CDT
Civil Twilight 6:37 AM CDT 6:21 PM CDT
Nautical Twilight 6:08 AM CDT 6:50 PM CDT
Astronomical Twilight 5:40 AM CDT 7:18 PM CDT
Moon 8:51 PM CDT (11/2) 10:13 AM CDT (11/2)
Length of Visible Light 11h 44m
Length of Day
10h 54m
Waning Gibbous, 87% of the Moon is Illuminated
Nov 2
Waning Gibbous
Nov 6
Last Quarter
Nov 13
New
Nov 20
First Quarter
Nov 28
Full

Hourly Weather History & Observations

Time (CDT) Temp. Heat Index Dew Point Humidity Pressure Visibility Wind Dir Wind Speed Gust Speed Precip Events Conditions
12:55 AM 46.6 °F - 43.5 °F 89% 30.04 in 10.0 mi Calm Calm - N/A   Clear
1:55 AM 45.7 °F - 42.8 °F 90% 30.05 in 10.0 mi Calm Calm - N/A   Clear
2:55 AM 43.7 °F - 40.8 °F 90% 30.04 in 10.0 mi Calm Calm - N/A   Clear
3:55 AM 43.5 °F - 41.2 °F 91% 30.04 in 10.0 mi Calm Calm - N/A   Clear
4:55 AM 43.3 °F - 41.2 °F 92% 30.04 in 10.0 mi Calm Calm - N/A   Clear
5:55 AM 42.6 °F - 40.6 °F 93% 30.05 in 10.0 mi Calm Calm - N/A   Clear
6:55 AM 43.0 °F - 40.5 °F 91% 30.06 in 10.0 mi Calm Calm - N/A   Clear
7:55 AM 46.8 °F - 43.7 °F 89% 30.07 in 10.0 mi Calm Calm - N/A   Clear
8:55 AM 59.5 °F - 48.0 °F 66% 30.09 in 10.0 mi Calm Calm - N/A   Partly Cloudy
9:55 AM 71.1 °F - 55.4 °F 58% 30.09 in 10.0 mi SSW 6.9 mph - N/A   Partly Cloudy
10:55 AM 75.2 °F - 56.5 °F 52% 30.09 in 10.0 mi WSW 8.1 mph - N/A   Partly Cloudy
11:55 AM 77.9 °F - 58.5 °F 51% 30.07 in 10.0 mi WSW 8.1 mph - N/A   Scattered Clouds
12:55 PM 78.6 °F - 57.9 °F 49% 30.04 in 10.0 mi SW 6.9 mph - N/A   Scattered Clouds
1:55 PM 80.4 °F 81.0 °F 59.2 °F 48% 30.01 in 10.0 mi WNW 9.2 mph - N/A   Scattered Clouds
2:55 PM 80.8 °F 81.4 °F 59.7 °F 49% 30.00 in 10.0 mi Variable 6.9 mph - N/A   Scattered Clouds
3:55 PM 77.2 °F - 64.6 °F 65% 30.00 in 10.0 mi SW 11.5 mph - N/A   Scattered Clouds
4:55 PM 77.7 °F - 64.8 °F 64% 29.99 in 10.0 mi SW 8.1 mph - N/A   Partly Cloudy
5:55 PM 73.2 °F - 64.6 °F 74% 30.00 in 10.0 mi South 6.9 mph - N/A   Partly Cloudy
6:55 PM 70.2 °F - 64.0 °F 81% 30.01 in 10.0 mi SSW 6.9 mph - N/A   Clear
7:55 PM 67.6 °F - 63.7 °F 87% 30.03 in 10.0 mi SW 4.6 mph - N/A   Clear
8:55 PM 65.1 °F - 61.9 °F 89% 30.04 in 9.0 mi SSE 4.6 mph - N/A   Clear
9:55 PM 62.2 °F - 60.8 °F 95% 30.05 in 5.0 mi South 3.5 mph - N/A   Clear
10:55 PM 64.9 °F - 63.1 °F 94% 30.06 in 10.0 mi WSW 5.8 mph - N/A   Clear
11:55 PM 65.1 °F - 63.3 °F 94% 30.06 in 10.0 mi WSW 5.8 mph - N/A   Clear